Content
SEND FEEDBACK

Daily
Averages
Monthly
Summary
United States of America

UPI, GUAM


Home > North America > United States > Guam
Elevation: 53 feet     Latitude: 13 34N     Longitude: 144 55E

WEATHER
 
SELECT A DAY
Number of Records: 215,616;   Date Range: 1/1/95 - 12/21/14
 
SHARE

PRINT THIS DATA

[ ← Previous Day ]
WEATHER ALMANAC - FEBRUARY 24, 2013
[ Next Day → ]
[ °C ]   °F
Weather ElementAverageHighLow
Temperature80.9 °F86.2 °F (12:54 pm)77 °F (11:54 pm)
Dewpoint72.6 °F73.9 °F (11:54 pm)71.8 °F (4:54 am)
Humidity76.1 %90 % (11:54 pm)62 % (1:54 pm)
Barometer29.90 in29.95 in (8:54 am)29.84 in (3:54 pm)
Wind Speed13 mph20.7 mph (1:54 pm)
Wind Gust27.6 mph (1:54 pm)
Weather ElementAverage
Visibility10 mi
Wind DirectionENE (60.4 °)

Weather ElementTotal
Precipitation---
Cooling Degree Days16.6 (Base 65)
Growing Degree Days31.6 (Base 50)
Averaged from 23 records on February 24, 2013
WEATHER CONDITIONS BREAKOUT
WIND DIRECTION BREAKOUT
WEATHER BY HOUR - FEBRUARY 24, 2013
[ °C ]   °F
Local TimeTemperatureDewpointHumidityBarometerVisibilityWind DirectionWind SpeedGust SpeedPrecipitationEventsConditions
1:54 AM78.3 °F72.3 °F82 %29.90 in10.0 miENE (70°)9.2 mphPartly Cloudy
2:54 AM78.4 °F72.5 °F82 %29.89 in10.0 miENE (70°)10.4 mphClear
3:54 AM78.1 °F73.2 °F85 %29.88 in10.0 miENE (70°)11.5 mphClear
4:54 AM77.9 °F71.8 °F81 %29.89 in10.0 miENE (60°)9.2 mphPartly Cloudy
5:54 AM77.9 °F72.0 °F82 %29.90 in10.0 miENE (60°)9.2 mphClear
6:54 AM77.7 °F72.0 °F82 %29.93 in10.0 miENE (60°)9.2 mphClear
7:54 AM78.1 °F72.0 °F81 %29.94 in10.0 miENE (60°)8.1 mphClear
8:54 AM81.0 °F72.0 °F74 %29.95 in10.0 miENE (60°)10.4 mph20.7 mphScattered Clouds
9:54 AM82.0 °F72.0 °F71 %29.95 in10.0 miENE (60°)16.1 mphScattered Clouds
10:54 AM84.7 °F73.4 °F69 %29.94 in10.0 miNE (50°)17.3 mphMostly Cloudy
11:54 AM84.4 °F73.0 °F69 %29.92 in10.0 miNE (50°)18.4 mphMostly Cloudy
12:54 PM86.2 °F73.6 °F66 %29.89 in10.0 miENE (60°)18.4 mph26.5 mphMostly Cloudy
1:54 PM86.2 °F71.8 °F62 %29.86 in10.0 miEast (80°)20.7 mph27.6 mphScattered Clouds
2:54 PM85.8 °F72.7 °F65 %29.85 in10.0 miENE (70°)17.3 mphScattered Clouds
3:54 PM86.0 °F73.0 °F65 %29.84 in10.0 miENE (70°)17.3 mphMostly Cloudy
4:54 PM84.0 °F73.4 °F70 %29.85 in10.0 miNE (50°)19.6 mph26.5 mphMostly Cloudy
5:54 PM82.6 °F73.2 °F73 %29.87 in10.0 miNE (50°)16.1 mphPartly Cloudy
6:54 PM79.0 °F73.0 °F82 %29.89 in10.0 miNE (50°)9.2 mphScattered Clouds
7:54 PM79.0 °F73.0 °F82 %29.91 in10.0 miENE (60°)9.2 mphPartly Cloudy
8:54 PM79.0 °F72.0 °F79 %29.92 in10.0 miENE (60°)11.5 mphScattered Clouds
9:54 PM79.0 °F72.0 °F79 %29.93 in10.0 miNE (50°)6.9 mphScattered Clouds
10:54 PM79.5 °F72.9 °F80 %29.94 in10.0 miENE (60°)12.7 mphPartly Cloudy
11:54 PM77.0 °F73.9 °F90 %29.93 in10.0 miENE (60°)10.4 mph19.6 mph0.00 inRainLight Rain
Hourly data recorded from PGUM, located miles away from Upi, Guam







STORIES FROM OUR PARTNERS